Lid_Strength_Index
19 20 21 22 22 22 21 22 23 22 19 20 20 20 18 17 18 19 19 19 18 18 17 16 16 16 15 15 15 15 15 15 14 15 16 16 16 15 14 14 13 13 13 13
20 22 22 20 20 20 21 22 24 21 19 21 22 21 18 18 18 18 18 19 18 18 17 16 16 16 16 16 15 15 15 15 15 15 15 15 16 15 15 14 14 13 13 13
22 22 19 18 21 20 23 22 24 22 21 21 23 22 21 19 17 17 17 17 17 17 17 17 17 17 16 16 16 15 15 15 15 15 15 15 15 16 16 15 15 14 14 14
22 20 19 20 20 20 20 21 20 20 21 24 22 25 23 20 18 17 16 18 17 17 17 17 17 17 17 16 16 15 15 16 15 15 16 16 17 17 16 16 15 15 14 15
22 22 21 20 20 19 20 19 19 19 21 23 24 25 22 20 20 17 16 17 18 17 17 17 16 16 16 15 16 16 16 16 16 16 16 17 17 17 16 17 16 16 15 15
21 19 20 20 18 18 18 19 19 20 22 28 24 23 23 22 18 18 16 16 17 17 17 17 16 15 16 15 16 16 16 16 16 17 17 18 18 18 17 17 17 17 17 16
20 20 20 18 20 18 19 20 25 26 29 26 23 24 22 19 18 17 16 15 17 17 17 17 16 16 16 15 16 16 16 16 16 17 17 17 18 18 18 18 18 17 17 17
23 24 21 18 20 21 20 21 24 29 26 23 21 24 20 19 17 16 15 14 16 17 17 16 16 16 16 15 15 16 16 16 16 17 17 17 17 17 17 18 18 18 18 17
25 22 20 18 18 19 21 22 20 27 27 27 22 21 18 17 18 18 18 17 17 17 17 16 16 16 16 16 15 15 16 16 16 16 16 17 17 17 18 18 17 17 17 16
20 24 19 19 19 19 21 19 23 25 29 30 24 25 21 18 17 17 18 18 17 17 17 16 16 15 15 15 15 15 15 16 15 16 17 16 17 17 17 17 17 17 17 17
25 21 22 19 22 22 22 23 23 22 24 27 28 24 21 19 17 17 17 17 17 17 16 16 16 15 15 16 16 15 16 16 16 16 16 16 16 16 16 17 17 17 17 17
20 23 27 23 21 20 22 22 22 24 26 26 25 25 17 17 17 16 16 15 16 16 16 16 16 16 16 16 16 16 15 16 15 16 16 16 16 16 17 17 17 17 18 17
21 25 29 23 23 21 25 21 20 22 23 26 27 22 18 17 18 16 16 16 15 15 15 15 16 16 16 16 16 16 16 15 15 16 16 16 16 17 17 17 17 17 18 19
17 29 25 24 24 25 27 26 20 24 28 25 22 21 19 19 18 18 17 16 16 15 15 16 16 16 16 16 16 16 16 15 15 16 16 16 17 17 17 17 17 17 18 19
21 28 30 27 23 24 25 27 23 23 21 23 19 20 18 18 17 17 17 17 16 16 15 16 16 16 16 17 16 16 16 15 16 16 16 16 16 17 17 17 17 17 17 18
24 29 30 29 21 22 25 24 24 21 19 20 19 20 17 19 20 18 16 16 16 16 15 15 15 15 15 15 16 15 16 16 16 16 16 16 16 16 16 17 17 18 18 18
26 28 31 30 23 23 26 24 22 21 24 19 22 17 17 19 17 17 17 16 16 15 15 15 15 15 14 15 14 16 17 17 18 17 16 16 16 16 17 17 18 18 19 19
29 31 33 32 29 30 21 21 22 20 18 20 19 18 19 19 18 17 17 16 15 14 14 14 14 14 14 15 15 16 15 15 15 15 15 15 16 16 17 18 19 19 19 20
22 27 33 30 38 25 20 23 23 22 21 18 18 16 20 20 20 19 15 15 15 15 14 14 15 16 15 16 15 15 15 15 15 16 15 16 16 17 18 19 20 21 22 24
20 23 27 36 34 33 25 22 21 22 24 18 18 18 19 19 24 21 19 15 14 14 14 14 14 15 15 14 15 15 15 16 17 16 16 16 18 17 19 20 20 21 24 23
26 27 26 35 32 28 22 20 21 25 21 20 19 19 18 19 17 17 16 16 14 14 14 14 15 15 14 14 14 15 16 17 15 16 18 18 19 19 19 20 21 22 24 24
26 28 29 30 34 30 19 19 20 17 20 18 19 19 18 17 17 17 16 15 14 14 14 13 15 15 14 15 15 16 17 15 17 19 19 20 20 19 19 20 21 22 24 25
25 22 24 23 23 22 18 16 16 19 18 17 18 17 16 16 16 15 16 15 17 17 14 14 15 16 18 19 19 17 15 18 20 22 22 23 22 20 19 21 23 24 24 25
24 23 23 21 20 18 17 15 15 16 17 15 15 15 16 16 16 15 15 15 15 15 16 16 17 17 17 18 17 17 16 20 22 22 23 23 23 23 23 20 20 21 23 24
21 20 23 23 18 16 18 17 16 15 16 17 16 16 18 16 17 18 17 17 17 17 17 18 18 18 17 17 17 16 17 21 21 22 23 23 22 22 22 20 20 19 19 19
19 21 21 19 20 19 18 20 19 19 19 19 18 18 18 19 20 20 20 20 20 20 20 19 19 19 19 18 18 17 17 20 20 20 20 20 20 21 20 20 20 15 13 11